TimeEDT,TemperatureF,Dew PointF,Humidity,Sea Level PressureIn,VisibilityMPH,Wind Direction,Wind SpeedMPH,Gust SpeedMPH,PrecipitationIn,Events,Conditions,WindDirDegrees,DateUTC
12:56 AM,73.9,73.0,97,30.20,10.0,South,4.6,-,N/A,,Clear,190,2013-06-24 04:56:00
1:56 AM,75.0,73.0,94,30.21,9.0,Calm,Calm,-,N/A,,Clear,0,2013-06-24 05:56:00
2:35 AM,75.2,73.4,94,30.21,9.0,Calm,Calm,-,N/A,,Mostly Cloudy,0,2013-06-24 06:35:00
2:56 AM,73.9,73.0,97,30.22,8.0,Calm,Calm,-,N/A,,Mostly Cloudy,0,2013-06-24 06:56:00
3:56 AM,73.9,73.0,97,30.22,7.0,Calm,Calm,-,N/A,,Overcast,0,2013-06-24 07:56:00
4:56 AM,73.9,73.0,97,30.23,7.0,Calm,Calm,-,N/A,,Overcast,0,2013-06-24 08:56:00
5:17 AM,73.4,73.4,100,30.22,7.0,Calm,Calm,-,0.00,Rain,Light Rain,0,2013-06-24 09:17:00
5:56 AM,73.0,73.0,100,30.23,6.0,Calm,Calm,-,0.00,,Overcast,0,2013-06-24 09:56:00
7:01 AM,73.4,73.4,100,30.23,2.5,SSW,6.9,-,0.01,Rain,Rain,200,2013-06-24 11:01:00
7:13 AM,73.4,71.6,94,30.23,1.8,SSW,13.8,20.7,0.07,Rain-Thunderstorm,Light Thunderstorms and Rain,200,2013-06-24 11:13:00
7:25 AM,73.4,69.8,88,30.22,3.0,South,6.9,-,0.16,Rain-Thunderstorm,Light Thunderstorms and Rain,190,2013-06-24 11:25:00
7:32 AM,73.4,69.8,88,30.22,10.0,South,4.6,-,0.16,Rain,Light Rain,190,2013-06-24 11:32:00
7:56 AM,73.9,72.0,93,30.24,10.0,SSW,3.5,-,0.16,Thunderstorm,Thunderstorm,200,2013-06-24 11:56:00
8:27 AM,77.0,73.4,89,30.23,6.0,SW,3.5,-,0.01,Rain,Light Rain,220,2013-06-24 12:27:00
8:52 AM,77.0,73.4,89,30.24,10.0,SSW,3.5,-,0.02,Thunderstorm,Thunderstorm,200,2013-06-24 12:52:00
8:56 AM,77.0,73.9,90,30.25,10.0,SW,3.5,-,0.02,Thunderstorm,Thunderstorm,230,2013-06-24 12:56:00
9:04 AM,77.0,73.4,89,30.24,1.2,South,5.8,-,0.10,Rain-Thunderstorm,Heavy Thunderstorms and Rain,180,2013-06-24 13:04:00
9:06 AM,77.0,73.4,89,30.24,0.8,Variable,5.8,-,0.12,Rain-Thunderstorm,Heavy Thunderstorms and Rain,0,2013-06-24 13:06:00
9:13 AM,75.2,71.6,89,30.25,1.0,SW,11.5,17.3,0.17,Rain-Thunderstorm,Light Thunderstorms and Rain,230,2013-06-24 13:13:00
9:15 AM,75.2,69.8,83,30.25,2.0,SW,9.2,17.3,0.17,Rain-Thunderstorm,Light Thunderstorms and Rain,230,2013-06-24 13:15:00
9:22 AM,73.4,69.8,88,30.24,10.0,SSW,8.1,-,0.17,Thunderstorm,Thunderstorm,210,2013-06-24 13:22:00
9:56 AM,71.1,69.1,93,30.26,10.0,SSW,5.8,-,0.17,Rain-Thunderstorm,Light Thunderstorms and Rain,210,2013-06-24 13:56:00
10:32 AM,71.6,69.8,94,30.25,7.0,Calm,Calm,-,0.04,Rain,Light Rain,0,2013-06-24 14:32:00
10:56 AM,73.0,71.1,93,30.26,10.0,South,3.5,-,0.04,,Clear,190,2013-06-24 14:56:00
11:56 AM,78.1,75.0,90,30.25,10.0,South,5.8,-,0.00,,Mostly Cloudy,180,2013-06-24 15:56:00
12:56 PM,79.0,73.0,82,30.25,10.0,SSW,5.8,-,N/A,,Clear,200,2013-06-24 16:56:00
1:56 PM,82.0,73.9,76,30.22,10.0,South,9.2,-,N/A,,Clear,180,2013-06-24 17:56:00
2:56 PM,84.0,73.9,72,30.19,10.0,SSW,9.2,-,N/A,,Mostly Cloudy,200,2013-06-24 18:56:00
3:56 PM,81.0,73.0,77,30.19,10.0,South,11.5,19.6,N/A,,Mostly Cloudy,190,2013-06-24 19:56:00
4:09 PM,80.6,73.4,79,30.18,10.0,SSW,9.2,-,N/A,Thunderstorm,Thunderstorm,210,2013-06-24 20:09:00
4:56 PM,78.1,73.0,84,30.21,10.0,WNW,11.5,-,N/A,Thunderstorm,Thunderstorm,300,2013-06-24 20:56:00
5:05 PM,75.2,71.6,89,30.19,2.5,Calm,Calm,-,0.03,Rain-Thunderstorm,Thunderstorms and Rain,0,2013-06-24 21:05:00
5:09 PM,75.2,73.4,94,30.18,1.0,Calm,Calm,-,0.07,Rain-Thunderstorm,Heavy Thunderstorms and Rain,0,2013-06-24 21:09:00
5:19 PM,75.2,73.4,94,30.17,2.0,West,3.5,-,0.10,Rain-Thunderstorm,Thunderstorms and Rain,270,2013-06-24 21:19:00
5:29 PM,75.2,73.4,94,30.16,5.0,Calm,Calm,-,0.10,Rain-Thunderstorm,Light Thunderstorms and Rain,0,2013-06-24 21:29:00
5:40 PM,75.2,73.4,94,30.15,5.0,South,4.6,-,0.10,Rain,Light Rain,180,2013-06-24 21:40:00
5:56 PM,75.0,73.0,94,30.15,5.0,South,3.5,-,0.11,Rain,Light Rain,170,2013-06-24 21:56:00
6:56 PM,75.0,73.0,94,30.14,10.0,SW,3.5,-,0.00,,Mostly Cloudy,230,2013-06-24 22:56:00
7:56 PM,73.9,72.0,93,30.16,10.0,WSW,4.6,-,N/A,,Mostly Cloudy,240,2013-06-24 23:56:00
8:56 PM,73.0,71.1,93,30.16,10.0,Calm,Calm,-,N/A,,Partly Cloudy,0,2013-06-25 00:56:00
9:56 PM,73.0,72.0,96,30.17,10.0,South,4.6,-,N/A,,Scattered Clouds,180,2013-06-25 01:56:00
10:56 PM,73.9,73.0,97,30.17,10.0,SSW,3.5,-,N/A,,Clear,200,2013-06-25 02:56:00
11:56 PM,73.9,73.0,97,30.18,9.0,SSW,4.6,-,N/A,,Clear,210,2013-06-25 03:56:00